Time,TemperatureF,DewpointF,PressureIn,WindDirection,WindDirectionDegrees,WindSpeedMPH,WindSpeedGustMPH,Humidity,HourlyPrecipIn,Conditions,Clouds,dailyrainin,SoftwareType,DateUTC
2013-03-13 00:00:00,46.6,34.2,29.85,West,270,2.0,3.0,62,0.00,CLR,,0.00,WeatherDisplay:10.37,2013-03-13 07:00:00,
2013-03-13 00:05:00,46.4,34.1,29.85,West,270,2.0,3.0,62,0.00,CLR,,0.00,WeatherDisplay:10.37,2013-03-13 07:05:00,
2013-03-13 00:10:00,46.4,34.1,29.85,West,270,2.0,3.0,62,0.00,CLR,,0.00,WeatherDisplay:10.37,2013-03-13 07:10:00,
2013-03-13 00:15:00,46.3,33.9,29.85,West,265,2.0,4.0,62,0.00,CLR,,0.00,WeatherDisplay:10.37,2013-03-13 07:15:00,
2013-03-13 00:20:00,46.4,34.1,29.85,WSW,256,0.0,3.0,62,0.00,CLR,,0.00,WeatherDisplay:10.37,2013-03-13 07:20:00,
2013-03-13 00:30:00,45.9,34.0,29.85,WSW,248,0.0,3.0,63,0.00,CLR,,0.00,WeatherDisplay:10.37,2013-03-13 07:30:00,
2013-03-13 00:35:00,45.8,33.9,29.85,WSW,248,0.0,0.0,63,0.00,CLR,,0.00,WeatherDisplay:10.37,2013-03-13 07:35:00,
2013-03-13 00:40:00,45.9,34.0,29.85,West,274,0.0,3.0,63,0.00,CLR,,0.00,WeatherDisplay:10.37,2013-03-13 07:40:00,
2013-03-13 00:50:00,45.6,34.2,29.85,WNW,292,0.0,0.0,64,0.00,CLR,,0.00,WeatherDisplay:10.37,2013-03-13 07:50:00,
2013-03-13 00:55:00,45.3,33.9,29.85,WNW,292,0.0,2.0,64,0.00,CLR,,0.00,WeatherDisplay:10.37,2013-03-13 07:55:00,
2013-03-13 01:00:00,45.3,33.9,29.85,West,278,2.0,3.0,64,0.00,CLR,,0.00,WeatherDisplay:10.37,2013-03-13 08:00:00,
2013-03-13 01:05:00,45.3,33.9,29.85,WSW,257,0.0,3.0,64,0.00,CLR,,0.00,WeatherDisplay:10.37,2013-03-13 08:05:00,
2013-03-13 01:10:00,45.3,33.9,29.85,WSW,248,0.0,4.0,64,0.00,CLR,,0.00,WeatherDisplay:10.37,2013-03-13 08:10:00,
2013-03-13 01:15:00,45.3,34.2,29.85,WSW,248,0.0,3.0,65,0.00,CLR,,0.00,WeatherDisplay:10.37,2013-03-13 08:15:00,
2013-03-13 01:20:00,45.3,34.2,29.85,WSW,248,2.0,5.0,65,0.00,CLR,,0.00,WeatherDisplay:10.37,2013-03-13 08:20:00,
2013-03-13 01:30:00,45.0,33.9,29.85,WSW,248,0.0,0.0,65,0.00,CLR,,0.00,WeatherDisplay:10.37,2013-03-13 08:30:00,
2013-03-13 01:35:00,45.0,33.9,29.85,WSW,248,0.0,0.0,65,0.00,CLR,,0.00,WeatherDisplay:10.37,2013-03-13 08:35:00,
2013-03-13 01:40:00,44.8,33.8,29.85,WSW,248,0.0,0.0,65,0.00,CLR,,0.00,WeatherDisplay:10.37,2013-03-13 08:40:00,
2013-03-13 01:45:00,44.8,33.7,29.85,WSW,248,0.0,0.0,65,0.00,CLR,,0.00,WeatherDisplay:10.37,2013-03-13 08:45:00,
2013-03-13 01:50:00,44.6,33.9,29.85,WSW,248,0.0,0.0,66,0.00,CLR,,0.00,WeatherDisplay:10.37,2013-03-13 08:50:00,
2013-03-13 02:00:00,44.4,33.8,29.88,WSW,248,0.0,0.0,66,0.00,CLR,,0.00,WeatherDisplay:10.37,2013-03-13 09:00:00,
2013-03-13 02:05:00,44.8,34.1,29.88,WSW,248,0.0,0.0,66,0.00,CLR,,0.00,WeatherDisplay:10.37,2013-03-13 09:05:00,
2013-03-13 02:10:00,44.4,33.8,29.88,WSW,248,0.0,0.0,66,0.00,CLR,,0.00,WeatherDisplay:10.37,2013-03-13 09:10:00,
2013-03-13 02:15:00,44.2,33.6,29.85,WSW,248,1.0,4.0,66,0.00,CLR,,0.00,WeatherDisplay:10.37,2013-03-13 09:15:00,
2013-03-13 02:20:00,44.4,33.8,29.85,WSW,248,0.0,0.0,66,0.00,CLR,,0.00,WeatherDisplay:10.37,2013-03-13 09:20:00,
2013-03-13 02:25:00,44.4,33.8,29.85,WSW,248,0.0,0.0,66,0.00,CLR,,0.00,WeatherDisplay:10.37,2013-03-13 09:25:00,
2013-03-13 02:30:00,44.2,34.0,29.85,WSW,248,0.0,0.0,67,0.00,CLR,,0.00,WeatherDisplay:10.37,2013-03-13 09:30:00,
2013-03-13 02:40:00,44.3,34.0,29.85,WSW,248,0.0,3.0,67,0.00,CLR,,0.00,WeatherDisplay:10.37,2013-03-13 09:40:00,
2013-03-13 02:50:00,44.2,34.3,29.85,WSW,248,0.0,2.0,68,0.00,CLR,,0.00,WeatherDisplay:10.37,2013-03-13 09:50:00,
2013-03-13 02:55:00,44.2,34.3,29.85,SSW,210,0.0,3.0,68,0.00,CLR,,0.00,WeatherDisplay:10.37,2013-03-13 09:55:00,
2013-03-13 03:00:00,44.2,34.7,29.85,South,180,0.0,0.0,69,0.00,CLR,,0.00,WeatherDisplay:10.37,2013-03-13 10:00:00,
2013-03-13 03:05:00,44.2,34.7,29.85,South,180,0.0,0.0,69,0.00,CLR,,0.00,WeatherDisplay:10.37,2013-03-13 10:05:00,
2013-03-13 03:10:00,44.2,34.7,29.85,South,180,0.0,2.0,69,0.00,CLR,,0.00,WeatherDisplay:10.37,2013-03-13 10:10:00,
2013-03-13 03:20:00,44.2,34.7,29.85,West,275,0.0,2.0,69,0.00,CLR,,0.00,WeatherDisplay:10.37,2013-03-13 10:20:00,
2013-03-13 03:25:00,44.2,34.7,29.85,NW,321,0.0,3.0,69,0.00,CLR,,0.00,WeatherDisplay:10.37,2013-03-13 10:25:00,
2013-03-13 03:30:00,44.2,34.7,29.85,NNE,26,0.0,2.0,69,0.00,CLR,,0.00,WeatherDisplay:10.37,2013-03-13 10:30:00,
2013-03-13 03:40:00,44.1,34.5,29.85,ESE,112,0.0,0.0,69,0.00,CLR,,0.00,WeatherDisplay:10.37,2013-03-13 10:40:00,
2013-03-13 03:45:00,44.1,34.9,29.85,East,90,0.0,4.0,70,0.00,CLR,,0.00,WeatherDisplay:10.37,2013-03-13 10:45:00,
2013-03-13 03:50:00,44.6,35.4,29.85,NNW,344,2.0,5.0,70,0.00,CLR,,0.00,WeatherDisplay:10.37,2013-03-13 10:50:00,
2013-03-13 03:55:00,44.4,35.2,29.85,NNW,336,0.0,3.0,70,0.00,CLR,,0.00,WeatherDisplay:10.37,2013-03-13 10:55:00,
2013-03-13 04:00:00,44.2,35.1,29.85,NNW,338,0.0,0.0,70,0.00,CLR,,0.00,WeatherDisplay:10.37,2013-03-13 11:00:00,
2013-03-13 04:05:00,44.2,35.1,29.85,NNW,338,0.0,2.0,70,0.00,CLR,,0.00,WeatherDisplay:10.37,2013-03-13 11:05:00,
2013-03-13 04:10:00,44.1,34.9,29.85,NNW,338,0.0,2.0,70,0.00,CLR,,0.00,WeatherDisplay:10.37,2013-03-13 11:10:00,
2013-03-13 04:20:00,43.9,35.1,29.85,NNW,338,0.0,2.0,71,0.00,CLR,,0.00,WeatherDisplay:10.37,2013-03-13 11:20:00,
2013-03-13 04:30:00,43.7,35.3,29.85,NNW,338,0.0,0.0,72,0.00,CLR,,0.00,WeatherDisplay:10.37,2013-03-13 11:30:00,
2013-03-13 04:35:00,43.4,35.0,29.85,NNW,338,0.0,0.0,72,0.00,CLR,,0.00,WeatherDisplay:10.37,2013-03-13 11:35:00,
2013-03-13 04:40:00,43.5,35.1,29.85,NNW,338,0.0,0.0,72,0.00,CLR,,0.00,WeatherDisplay:10.37,2013-03-13 11:40:00,
2013-03-13 04:45:00,43.2,34.7,29.85,NNW,338,0.0,0.0,72,0.00,CLR,,0.00,WeatherDisplay:10.37,2013-03-13 11:45:00,
2013-03-13 04:50:00,43.5,35.1,29.85,NNW,338,0.0,3.0,72,0.00,CLR,,0.00,WeatherDisplay:10.37,2013-03-13 11:50:00,
2013-03-13 04:55:00,43.5,35.1,29.85,NNW,338,0.0,3.0,72,0.00,CLR,,0.00,WeatherDisplay:10.37,2013-03-13 11:55:00,
2013-03-13 05:00:00,43.3,34.9,29.85,NNW,338,0.0,0.0,72,0.00,CLR,,0.00,WeatherDisplay:10.37,2013-03-13 12:00:00,
2013-03-13 05:05:00,43.2,34.7,29.85,NNW,338,0.0,3.0,72,0.00,CLR,,0.00,WeatherDisplay:10.37,2013-03-13 12:05:00,
2013-03-13 05:10:00,43.2,35.1,29.85,NNW,338,2.0,3.0,73,0.00,CLR,,0.00,WeatherDisplay:10.37,2013-03-13 12:10:00,
2013-03-13 05:15:00,42.8,34.7,29.85,NNW,338,0.0,2.0,73,0.00,CLR,,0.00,WeatherDisplay:10.37,2013-03-13 12:15:00,
2013-03-13 05:20:00,42.6,34.2,29.85,NNW,338,0.0,0.0,72,0.00,CLR,,0.00,WeatherDisplay:10.37,2013-03-13 12:20:00,
2013-03-13 05:30:00,42.3,34.2,29.85,NNW,338,0.0,0.0,73,0.00,CLR,,0.00,WeatherDisplay:10.37,2013-03-13 12:30:00,
2013-03-13 05:35:00,42.3,34.2,29.85,NNW,338,0.0,0.0,73,0.00,CLR,,0.00,WeatherDisplay:10.37,2013-03-13 12:35:00,
2013-03-13 05:40:00,42.4,34.3,29.85,NNW,338,0.0,3.0,73,0.00,CLR,,0.00,WeatherDisplay:10.37,2013-03-13 12:40:00,
2013-03-13 05:45:00,42.8,34.7,29.85,NNW,338,0.0,0.0,73,0.00,CLR,,0.00,WeatherDisplay:10.37,2013-03-13 12:45:00,
2013-03-13 05:50:00,43.0,34.9,29.85,NNW,338,0.0,0.0,73,0.00,CLR,,0.00,WeatherDisplay:10.37,2013-03-13 12:50:00,
2013-03-13 06:00:00,42.4,34.7,29.85,NNW,338,0.0,0.0,74,0.00,CLR,,0.00,WeatherDisplay:10.37,2013-03-13 13:00:00,
2013-03-13 06:05:00,42.8,34.7,29.85,NNW,338,0.0,0.0,73,0.00,CLR,,0.00,WeatherDisplay:10.37,2013-03-13 13:05:00,
2013-03-13 06:10:00,42.6,34.6,29.85,NNW,338,0.0,0.0,73,0.00,CLR,,0.00,WeatherDisplay:10.37,2013-03-13 13:10:00,
2013-03-13 06:20:00,42.4,34.7,29.85,NNW,338,0.0,0.0,74,0.00,CLR,,0.00,WeatherDisplay:10.37,2013-03-13 13:20:00,
2013-03-13 06:25:00,42.3,34.6,29.85,NNW,338,0.0,0.0,74,0.00,CLR,,0.00,WeatherDisplay:10.37,2013-03-13 13:25:00,
2013-03-13 06:30:00,42.2,34.1,29.85,NNW,338,0.0,0.0,73,0.00,CLR,,0.00,WeatherDisplay:10.37,2013-03-13 13:30:00,
2013-03-13 06:35:00,42.1,34.0,29.85,NNW,338,0.0,0.0,73,0.00,CLR,,0.00,WeatherDisplay:10.37,2013-03-13 13:35:00,
2013-03-13 06:40:00,42.1,34.4,29.85,NNW,338,0.0,0.0,74,0.00,CLR,,0.00,WeatherDisplay:10.37,2013-03-13 13:40:00,
2013-03-13 06:45:00,42.3,34.6,29.85,NNW,338,0.0,0.0,74,0.00,CLR,,0.00,WeatherDisplay:10.37,2013-03-13 13:45:00,
2013-03-13 06:50:00,42.1,34.4,29.85,NNW,338,0.0,0.0,74,0.00,CLR,,0.00,WeatherDisplay:10.37,2013-03-13 13:50:00,
2013-03-13 07:00:00,42.1,34.4,29.85,NNW,338,0.0,0.0,74,0.00,CLR,,0.00,WeatherDisplay:10.37,2013-03-13 14:00:00,
2013-03-13 07:10:00,42.3,34.6,29.85,NNW,338,0.0,0.0,74,0.00,CLR,,0.00,WeatherDisplay:10.37,2013-03-13 14:10:00,
2013-03-13 07:15:00,42.3,34.6,29.88,NNW,338,0.0,0.0,74,0.00,CLR,,0.00,WeatherDisplay:10.37,2013-03-13 14:15:00,
2013-03-13 07:20:00,42.1,34.4,29.88,NNW,338,0.0,0.0,74,0.00,CLR,,0.00,WeatherDisplay:10.37,2013-03-13 14:20:00,
2013-03-13 07:30:00,42.4,34.7,29.88,NNW,338,0.0,0.0,74,0.00,CLR,,0.00,WeatherDisplay:10.37,2013-03-13 14:30:00,
2013-03-13 07:40:00,42.8,35.1,29.88,NNW,338,0.0,0.0,74,0.00,CLR,,0.00,WeatherDisplay:10.37,2013-03-13 14:40:00,
2013-03-13 07:50:00,43.5,36.1,29.88,NNW,338,0.0,0.0,75,0.00,CLR,,0.00,WeatherDisplay:10.37,2013-03-13 14:50:00,
2013-03-13 08:00:00,44.4,37.0,29.88,NNW,338,0.0,0.0,75,0.00,CLR,,0.00,WeatherDisplay:10.37,2013-03-13 15:00:00,
2013-03-13 08:05:00,45.0,37.5,29.88,NNW,338,0.0,0.0,75,0.00,CLR,,0.00,WeatherDisplay:10.37,2013-03-13 15:05:00,
2013-03-13 08:10:00,45.3,37.9,29.88,NNW,338,0.0,0.0,75,0.00,CLR,,0.00,WeatherDisplay:10.37,2013-03-13 15:10:00,
2013-03-13 08:20:00,46.0,38.6,29.88,NNW,338,0.0,0.0,75,0.00,CLR,,0.00,WeatherDisplay:10.37,2013-03-13 15:20:00,
2013-03-13 08:25:00,46.4,38.6,29.88,NNW,338,0.0,0.0,74,0.00,CLR,,0.00,WeatherDisplay:10.37,2013-03-13 15:25:00,
2013-03-13 08:30:00,46.9,39.0,29.88,NNW,338,0.0,0.0,74,0.00,CLR,,0.00,WeatherDisplay:10.37,2013-03-13 15:30:00,
2013-03-13 08:40:00,48.2,39.9,29.88,NNW,338,0.0,0.0,73,0.00,CLR,,0.00,WeatherDisplay:10.37,2013-03-13 15:40:00,
2013-03-13 08:45:00,49.1,40.8,29.88,North,352,0.0,3.0,73,0.00,CLR,,0.00,WeatherDisplay:10.37,2013-03-13 15:45:00,
2013-03-13 08:50:00,48.7,40.5,29.88,ENE,63,1.0,5.0,73,0.00,CLR,,0.00,WeatherDisplay:10.37,2013-03-13 15:50:00,
2013-03-13 09:00:00,49.4,40.8,29.88,ESE,115,2.0,5.0,72,0.00,CLR,,0.00,WeatherDisplay:10.37,2013-03-13 16:00:00,
2013-03-13 09:05:00,49.3,40.3,29.88,ESE,113,0.0,3.0,71,0.00,CLR,,0.00,WeatherDisplay:10.37,2013-03-13 16:05:00,
2013-03-13 09:10:00,49.8,40.4,29.88,ESE,112,2.0,5.0,70,0.00,CLR,,0.00,WeatherDisplay:10.37,2013-03-13 16:10:00,
2013-03-13 09:20:00,50.5,40.4,29.88,ESE,112,0.0,3.0,68,0.00,CLR,,0.00,WeatherDisplay:10.37,2013-03-13 16:20:00,
2013-03-13 09:25:00,50.7,40.5,29.88,ESE,112,0.0,0.0,68,0.00,CLR,,0.00,WeatherDisplay:10.37,2013-03-13 16:25:00,
2013-03-13 09:30:00,50.7,40.2,29.88,ESE,112,0.0,0.0,67,0.00,CLR,,0.00,WeatherDisplay:10.37,2013-03-13 16:30:00,
2013-03-13 09:40:00,52.3,41.3,29.88,NE,54,0.0,4.0,66,0.00,CLR,,0.00,WeatherDisplay:10.37,2013-03-13 16:40:00,
2013-03-13 09:45:00,52.3,40.9,29.88,North,4,0.0,3.0,65,0.00,CLR,,0.00,WeatherDisplay:10.37,2013-03-13 16:45:00,
2013-03-13 09:50:00,53.1,41.2,29.88,North,0,0.0,0.0,64,0.00,CLR,,0.00,WeatherDisplay:10.37,2013-03-13 16:50:00,
2013-03-13 09:55:00,52.9,40.2,29.88,North,8,0.0,0.0,62,0.00,CLR,,0.00,WeatherDisplay:10.37,2013-03-13 16:55:00,
2013-03-13 10:00:00,52.5,39.5,29.88,NNE,24,0.0,4.0,61,0.00,CLR,,0.00,WeatherDisplay:10.37,2013-03-13 17:00:00,
2013-03-13 10:05:00,52.8,39.8,29.88,NNE,29,0.0,5.0,61,0.00,CLR,,0.00,WeatherDisplay:10.37,2013-03-13 17:05:00,
2013-03-13 10:10:00,53.1,39.1,29.88,NNE,15,3.0,5.0,59,0.00,CLR,,0.00,WeatherDisplay:10.37,2013-03-13 17:10:00,
2013-03-13 10:20:00,53.6,38.7,29.88,NNE,13,0.0,3.0,57,0.00,CLR,,0.00,WeatherDisplay:10.37,2013-03-13 17:20:00,
2013-03-13 10:30:00,55.0,38.7,29.88,NNE,13,0.0,4.0,54,0.00,CLR,,0.00,WeatherDisplay:10.37,2013-03-13 17:30:00,
2013-03-13 10:35:00,55.5,38.6,29.88,NE,35,0.0,3.0,53,0.00,CLR,,0.00,WeatherDisplay:10.37,2013-03-13 17:35:00,
2013-03-13 10:40:00,55.8,38.5,29.88,East,93,3.0,5.0,52,0.00,CLR,,0.00,WeatherDisplay:10.37,2013-03-13 17:40:00,
2013-03-13 10:50:00,56.6,38.2,29.88,ENE,74,2.0,5.0,50,0.00,CLR,,0.00,WeatherDisplay:10.37,2013-03-13 17:50:00,
2013-03-13 10:55:00,57.2,38.2,29.88,NE,39,2.0,3.0,49,0.00,CLR,,0.00,WeatherDisplay:10.37,2013-03-13 17:55:00,
2013-03-13 11:00:00,57.6,38.0,29.88,NE,38,3.0,5.0,48,0.00,CLR,,0.00,WeatherDisplay:10.37,2013-03-13 18:00:00,
2013-03-13 11:05:00,57.6,36.9,29.88,NE,37,3.0,6.0,46,0.00,CLR,,0.00,WeatherDisplay:10.37,2013-03-13 18:05:00,
2013-03-13 11:10:00,58.0,37.3,29.88,NNE,26,2.0,5.0,46,0.00,CLR,,0.00,WeatherDisplay:10.37,2013-03-13 18:10:00,
2013-03-13 11:15:00,58.7,36.8,29.88,NNE,22,2.0,4.0,44,0.00,CLR,,0.00,WeatherDisplay:10.37,2013-03-13 18:15:00,
2013-03-13 11:25:00,60.0,36.8,29.88,NE,40,2.0,5.0,42,0.00,CLR,,0.00,WeatherDisplay:10.37,2013-03-13 18:25:00,
2013-03-13 11:30:00,60.4,36.6,29.88,ENE,59,3.0,5.0,41,0.00,CLR,,0.00,WeatherDisplay:10.37,2013-03-13 18:30:00,
2013-03-13 11:40:00,61.5,35.7,29.88,NNE,23,0.0,5.0,38,0.00,CLR,,0.00,WeatherDisplay:10.37,2013-03-13 18:40:00,
2013-03-13 11:45:00,62.2,36.3,29.88,NNE,31,3.0,5.0,38,0.00,CLR,,0.00,WeatherDisplay:10.37,2013-03-13 18:45:00,
2013-03-13 11:50:00,63.0,35.6,29.88,ENE,58,3.0,6.0,36,0.00,CLR,,0.00,WeatherDisplay:10.37,2013-03-13 18:50:00,
2013-03-13 12:00:00,64.2,35.2,29.88,NE,52,2.0,6.0,34,0.00,CLR,,0.00,WeatherDisplay:10.37,2013-03-13 19:00:00,
2013-03-13 12:05:00,64.8,35.0,29.88,ENE,67,3.0,6.0,33,0.00,CLR,,0.00,WeatherDisplay:10.37,2013-03-13 19:05:00,
2013-03-13 12:10:00,65.2,35.3,29.88,ENE,68,2.0,6.0,33,0.00,CLR,,0.00,WeatherDisplay:10.37,2013-03-13 19:10:00,
2013-03-13 12:20:00,66.0,34.5,29.88,ENE,73,0.0,3.0,31,0.00,CLR,,0.00,WeatherDisplay:10.37,2013-03-13 19:20:00,
2013-03-13 12:25:00,66.3,34.8,29.88,ENE,68,0.0,3.0,31,0.00,CLR,,0.00,WeatherDisplay:10.37,2013-03-13 19:25:00,
2013-03-13 12:30:00,66.9,33.5,29.88,ENE,68,0.0,3.0,29,0.00,CLR,,0.00,WeatherDisplay:10.37,2013-03-13 19:30:00,
2013-03-13 12:35:00,67.4,34.0,29.88,ENE,68,0.0,5.0,29,0.00,CLR,,0.00,WeatherDisplay:10.37,2013-03-13 19:35:00,
2013-03-13 12:40:00,67.8,33.5,29.88,ENE,57,2.0,5.0,28,0.00,CLR,,0.00,WeatherDisplay:10.37,2013-03-13 19:40:00,
2013-03-13 12:50:00,68.0,31.8,29.88,NNE,19,3.0,6.0,26,0.00,CLR,,0.00,WeatherDisplay:10.37,2013-03-13 19:50:00,
2013-03-13 13:00:00,68.9,31.6,29.88,NNE,17,2.0,6.0,25,0.00,CLR,,0.00,WeatherDisplay:10.37,2013-03-13 20:00:00,
2013-03-13 13:05:00,68.7,31.4,29.88,NNE,17,2.0,7.0,25,0.00,CLR,,0.00,WeatherDisplay:10.37,2013-03-13 20:05:00,
2013-03-13 13:10:00,69.3,32.0,29.88,North,10,2.0,6.0,25,0.00,CLR,,0.00,WeatherDisplay:10.37,2013-03-13 20:10:00,
2013-03-13 13:15:00,69.6,31.2,29.85,NNE,23,3.0,6.0,24,0.00,CLR,,0.00,WeatherDisplay:10.37,2013-03-13 20:15:00,
2013-03-13 13:20:00,70.0,31.5,29.85,NE,49,2.0,6.0,24,0.00,CLR,,0.00,WeatherDisplay:10.37,2013-03-13 20:20:00,
2013-03-13 13:30:00,70.1,30.6,29.85,NW,318,3.0,6.0,23,0.00,CLR,,0.00,WeatherDisplay:10.37,2013-03-13 20:30:00,
2013-03-13 13:35:00,68.7,30.4,29.85,WNW,286,2.0,6.0,24,0.00,CLR,,0.00,WeatherDisplay:10.37,2013-03-13 20:35:00,
2013-03-13 13:40:00,67.6,29.5,29.85,WNW,293,0.0,6.0,24,0.00,CLR,,0.00,WeatherDisplay:10.37,2013-03-13 20:40:00,
2013-03-13 13:50:00,68.9,30.6,29.85,NNW,339,3.0,6.0,24,0.00,CLR,,0.00,WeatherDisplay:10.37,2013-03-13 20:50:00,
2013-03-13 13:55:00,69.6,31.2,29.85,North,10,2.0,6.0,24,0.00,CLR,,0.00,WeatherDisplay:10.37,2013-03-13 20:55:00,
2013-03-13 14:00:00,70.3,31.8,29.85,NNE,30,0.0,3.0,24,0.00,CLR,,0.00,WeatherDisplay:10.37,2013-03-13 21:00:00,
2013-03-13 14:05:00,70.2,31.7,29.85,East,84,2.0,6.0,24,0.00,CLR,,0.00,WeatherDisplay:10.37,2013-03-13 21:05:00,
2013-03-13 14:10:00,69.5,30.1,29.85,SW,214,2.0,6.0,23,0.00,CLR,,0.00,WeatherDisplay:10.37,2013-03-13 21:10:00,
2013-03-13 14:15:00,69.8,30.3,29.85,West,275,0.0,5.0,23,0.00,CLR,,0.00,WeatherDisplay:10.37,2013-03-13 21:15:00,
2013-03-13 14:20:00,69.8,30.3,29.85,WSW,248,0.0,7.0,23,0.00,CLR,,0.00,WeatherDisplay:10.37,2013-03-13 21:20:00,
2013-03-13 14:30:00,71.0,31.3,29.85,West,276,0.0,5.0,23,0.00,CLR,,0.00,WeatherDisplay:10.37,2013-03-13 21:30:00,
2013-03-13 14:40:00,71.6,31.8,29.85,North,2,3.0,7.0,23,0.00,CLR,,0.00,WeatherDisplay:10.37,2013-03-13 21:40:00,
2013-03-13 14:45:00,71.6,30.7,29.85,NNE,20,0.0,6.0,22,0.00,CLR,,0.00,WeatherDisplay:10.37,2013-03-13 21:45:00,
2013-03-13 14:50:00,71.8,30.9,29.85,North,6,5.0,8.0,22,0.00,CLR,,0.00,WeatherDisplay:10.37,2013-03-13 21:50:00,
2013-03-13 14:55:00,71.6,30.7,29.85,North,355,2.0,6.0,22,0.00,CLR,,0.00,WeatherDisplay:10.37,2013-03-13 21:55:00,
2013-03-13 15:00:00,71.3,30.4,29.85,North,349,5.0,7.0,22,0.00,CLR,,0.00,WeatherDisplay:10.37,2013-03-13 22:00:00,
2013-03-13 15:05:00,71.6,29.6,29.85,North,350,5.0,7.0,21,0.00,CLR,,0.00,WeatherDisplay:10.37,2013-03-13 22:05:00,
2013-03-13 15:10:00,71.6,29.6,29.85,NNW,343,0.0,6.0,21,0.00,CLR,,0.00,WeatherDisplay:10.37,2013-03-13 22:10:00,
2013-03-13 15:20:00,71.6,29.6,29.83,North,354,3.0,6.0,21,0.00,CLR,,0.00,WeatherDisplay:10.37,2013-03-13 22:20:00,
2013-03-13 15:25:00,71.8,29.7,29.83,North,4,0.0,6.0,21,0.00,CLR,,0.00,WeatherDisplay:10.37,2013-03-13 22:25:00,
2013-03-13 15:30:00,71.5,29.5,29.83,North,6,6.0,8.0,21,0.00,CLR,,0.00,WeatherDisplay:10.37,2013-03-13 22:30:00,
2013-03-13 15:40:00,71.3,30.4,29.83,North,356,5.0,6.0,22,0.00,CLR,,0.00,WeatherDisplay:10.37,2013-03-13 22:40:00,
2013-03-13 15:50:00,71.1,30.3,29.85,North,350,2.0,7.0,22,0.00,CLR,,0.00,WeatherDisplay:10.37,2013-03-13 22:50:00,
2013-03-13 15:55:00,70.9,30.1,29.85,NNW,344,2.0,6.0,22,0.00,CLR,,0.00,WeatherDisplay:10.37,2013-03-13 22:55:00,
2013-03-13 16:00:00,71.2,30.4,29.85,NNW,347,3.0,7.0,22,0.00,CLR,,0.00,WeatherDisplay:10.37,2013-03-13 23:00:00,
2013-03-13 16:05:00,71.2,30.4,29.85,North,355,5.0,6.0,22,0.00,CLR,,0.00,WeatherDisplay:10.37,2013-03-13 23:05:00,
2013-03-13 16:10:00,71.2,30.4,29.85,North,352,5.0,7.0,22,0.00,CLR,,0.00,WeatherDisplay:10.37,2013-03-13 23:10:00,
2013-03-13 16:15:00,71.1,30.3,29.83,NNW,348,3.0,6.0,22,0.00,CLR,,0.00,WeatherDisplay:10.37,2013-03-13 23:15:00,
2013-03-13 16:20:00,71.1,30.3,29.83,North,354,2.0,5.0,22,0.00,CLR,,0.00,WeatherDisplay:10.37,2013-03-13 23:20:00,
2013-03-13 16:25:00,71.1,30.3,29.83,NNW,339,0.0,5.0,22,0.00,CLR,,0.00,WeatherDisplay:10.37,2013-03-13 23:25:00,
2013-03-13 16:30:00,71.1,30.3,29.83,NW,322,2.0,6.0,22,0.00,CLR,,0.00,WeatherDisplay:10.37,2013-03-13 23:30:00,
2013-03-13 16:40:00,71.1,30.3,29.83,North,356,3.0,6.0,22,0.00,CLR,,0.00,WeatherDisplay:10.37,2013-03-13 23:40:00,
2013-03-13 16:45:00,71.4,29.4,29.83,North,354,0.0,6.0,21,0.00,CLR,,0.00,WeatherDisplay:10.37,2013-03-13 23:45:00,
2013-03-13 16:50:00,71.4,29.4,29.83,NNW,337,2.0,6.0,21,0.00,CLR,,0.00,WeatherDisplay:10.37,2013-03-13 23:50:00,
2013-03-13 17:00:00,71.4,29.4,29.83,NNW,345,0.0,5.0,21,0.00,CLR,,0.00,WeatherDisplay:10.37,2013-03-14 00:00:00,
2013-03-13 17:05:00,71.4,29.4,29.83,NNW,329,2.0,5.0,21,0.00,CLR,,0.00,WeatherDisplay:10.37,2013-03-14 00:05:00,
2013-03-13 17:15:00,71.1,30.3,29.83,NNW,331,0.0,6.0,22,0.00,CLR,,0.00,WeatherDisplay:10.37,2013-03-14 00:15:00,
2013-03-13 17:20:00,70.0,29.3,29.83,WNW,303,2.0,6.0,22,0.00,CLR,,0.00,WeatherDisplay:10.37,2013-03-14 00:20:00,
2013-03-13 17:25:00,68.8,28.4,29.83,West,274,3.0,5.0,22,0.00,CLR,,0.00,WeatherDisplay:10.37,2013-03-14 00:25:00,
2013-03-13 17:30:00,67.7,28.5,29.80,West,268,2.0,6.0,23,0.00,CLR,,0.00,WeatherDisplay:10.37,2013-03-14 00:30:00,
2013-03-13 17:35:00,66.9,27.9,29.80,WSW,251,0.0,5.0,23,0.00,CLR,,0.00,WeatherDisplay:10.37,2013-03-14 00:35:00,
2013-03-13 17:40:00,66.0,27.1,29.80,WSW,242,5.0,8.0,23,0.00,CLR,,0.00,WeatherDisplay:10.37,2013-03-14 00:40:00,
2013-03-13 17:50:00,64.6,26.9,29.80,West,264,2.0,5.0,24,0.00,CLR,,0.00,WeatherDisplay:10.37,2013-03-14 00:50:00,
2013-03-13 18:00:00,63.7,27.2,29.83,WSW,257,2.0,6.0,25,0.00,CLR,,0.00,WeatherDisplay:10.37,2013-03-14 01:00:00,
2013-03-13 18:05:00,63.3,26.9,29.83,West,261,0.0,5.0,25,0.00,CLR,,0.00,WeatherDisplay:10.37,2013-03-14 01:05:00,
2013-03-13 18:10:00,62.2,26.8,29.83,WNW,283,5.0,10.0,26,0.00,CLR,,0.00,WeatherDisplay:10.37,2013-03-14 01:10:00,
2013-03-13 18:15:00,61.0,26.7,29.83,WNW,284,6.0,9.0,27,0.00,CLR,,0.00,WeatherDisplay:10.37,2013-03-14 01:15:00,
2013-03-13 18:20:00,60.0,26.7,29.83,West,272,5.0,8.0,28,0.00,CLR,,0.00,WeatherDisplay:10.37,2013-03-14 01:20:00,
2013-03-13 18:25:00,59.5,27.2,29.83,WSW,248,6.0,9.0,29,0.00,CLR,,0.00,WeatherDisplay:10.37,2013-03-14 01:25:00,
2013-03-13 18:30:00,59.0,26.8,29.80,West,263,5.0,7.0,29,0.00,CLR,,0.00,WeatherDisplay:10.37,2013-03-14 01:30:00,
2013-03-13 18:35:00,58.8,26.6,29.80,West,270,3.0,5.0,29,0.00,CLR,,0.00,WeatherDisplay:10.37,2013-03-14 01:35:00,
2013-03-13 18:40:00,58.6,28.1,29.80,WSW,257,3.0,8.0,31,0.00,CLR,,0.00,WeatherDisplay:10.37,2013-03-14 01:40:00,
2013-03-13 18:45:00,58.6,28.8,29.80,West,276,2.0,5.0,32,0.00,CLR,,0.00,WeatherDisplay:10.37,2013-03-14 01:45:00,
2013-03-13 18:50:00,58.8,30.5,29.80,WNW,299,0.0,3.0,34,0.00,CLR,,0.00,WeatherDisplay:10.37,2013-03-14 01:50:00,
2013-03-13 19:00:00,58.8,30.5,29.83,NNW,339,0.0,5.0,34,0.00,CLR,,0.00,WeatherDisplay:10.37,2013-03-14 02:00:00,
2013-03-13 19:05:00,58.4,30.1,29.83,NE,54,0.0,4.0,34,0.00,CLR,,0.00,WeatherDisplay:10.37,2013-03-14 02:05:00,
2013-03-13 19:10:00,58.1,30.6,29.83,ENE,68,0.0,4.0,35,0.00,CLR,,0.00,WeatherDisplay:10.37,2013-03-14 02:10:00,
2013-03-13 19:15:00,58.1,30.6,29.80,ENE,68,2.0,5.0,35,0.00,CLR,,0.00,WeatherDisplay:10.37,2013-03-14 02:15:00,
2013-03-13 19:20:00,58.3,30.7,29.80,ENE,68,2.0,4.0,35,0.00,CLR,,0.00,WeatherDisplay:10.37,2013-03-14 02:20:00,
2013-03-13 19:30:00,58.3,30.7,29.80,ENE,68,2.0,3.0,35,0.00,CLR,,0.00,WeatherDisplay:10.37,2013-03-14 02:30:00,
2013-03-13 19:40:00,58.1,30.6,29.80,ENE,61,0.0,3.0,35,0.00,CLR,,0.00,WeatherDisplay:10.37,2013-03-14 02:40:00,
2013-03-13 19:45:00,58.4,30.9,29.80,NNE,22,0.0,3.0,35,0.00,CLR,,0.00,WeatherDisplay:10.37,2013-03-14 02:45:00,
2013-03-13 19:50:00,58.3,30.7,29.80,NNW,337,0.0,3.0,35,0.00,CLR,,0.00,WeatherDisplay:10.37,2013-03-14 02:50:00,
2013-03-13 19:55:00,57.7,30.2,29.80,NW,315,0.0,0.0,35,0.00,CLR,,0.00,WeatherDisplay:10.37,2013-03-14 02:55:00,
2013-03-13 20:05:00,57.5,30.7,29.80,NW,315,0.0,0.0,36,0.00,CLR,,0.00,WeatherDisplay:10.37,2013-03-14 03:05:00,
2013-03-13 20:10:00,57.0,30.3,29.80,NW,315,0.0,0.0,36,0.00,CLR,,0.00,WeatherDisplay:10.37,2013-03-14 03:10:00,
2013-03-13 20:20:00,56.8,30.8,29.80,NW,315,0.0,0.0,37,0.00,CLR,,0.00,WeatherDisplay:10.37,2013-03-14 03:20:00,
2013-03-13 20:25:00,56.6,30.6,29.80,NW,315,0.0,0.0,37,0.00,CLR,,0.00,WeatherDisplay:10.37,2013-03-14 03:25:00,
2013-03-13 20:35:00,56.1,30.8,29.80,NW,315,0.0,0.0,38,0.00,CLR,,0.00,WeatherDisplay:10.37,2013-03-14 03:35:00,
2013-03-13 20:40:00,55.9,30.7,29.80,NW,315,0.0,0.0,38,0.00,CLR,,0.00,WeatherDisplay:10.37,2013-03-14 03:40:00,
2013-03-13 20:45:00,55.4,30.2,29.83,NW,315,0.0,0.0,38,0.00,CLR,,0.00,WeatherDisplay:10.37,2013-03-14 03:45:00,
2013-03-13 20:50:00,55.4,30.2,29.83,NW,315,0.0,0.0,38,0.00,CLR,,0.00,WeatherDisplay:10.37,2013-03-14 03:50:00,
2013-03-13 20:55:00,55.0,29.9,29.83,NW,315,0.0,0.0,38,0.00,CLR,,0.00,WeatherDisplay:10.37,2013-03-14 03:55:00,
2013-03-13 21:00:00,54.9,30.3,29.83,NW,315,0.0,0.0,39,0.00,CLR,,0.00,WeatherDisplay:10.37,2013-03-14 04:00:00,
2013-03-13 21:05:00,54.9,31.0,29.83,NW,315,0.0,0.0,40,0.00,CLR,,0.00,WeatherDisplay:10.37,2013-03-14 04:05:00,
2013-03-13 21:10:00,54.8,30.9,29.83,NW,315,0.0,0.0,40,0.00,CLR,,0.00,WeatherDisplay:10.37,2013-03-14 04:10:00,
2013-03-13 21:15:00,54.5,30.6,29.80,NW,315,0.0,0.0,40,0.00,CLR,,0.00,WeatherDisplay:10.37,2013-03-14 04:15:00,
2013-03-13 21:20:00,54.5,30.6,29.80,NW,315,0.0,0.0,40,0.00,CLR,,0.00,WeatherDisplay:10.37,2013-03-14 04:20:00,
2013-03-13 21:25:00,54.1,30.9,29.80,NW,315,0.0,0.0,41,0.00,CLR,,0.00,WeatherDisplay:10.37,2013-03-14 04:25:00,
2013-03-13 21:30:00,54.0,30.8,29.83,NW,315,0.0,0.0,41,0.00,CLR,,0.00,WeatherDisplay:10.37,2013-03-14 04:30:00,
2013-03-13 21:35:00,54.0,31.4,29.83,NW,315,0.0,0.0,42,0.00,CLR,,0.00,WeatherDisplay:10.37,2013-03-14 04:35:00,
2013-03-13 21:40:00,53.6,31.0,29.83,NW,315,0.0,0.0,42,0.00,CLR,,0.00,WeatherDisplay:10.37,2013-03-14 04:40:00,
2013-03-13 21:45:00,53.4,30.9,29.83,NW,315,0.0,0.0,42,0.00,CLR,,0.00,WeatherDisplay:10.37,2013-03-14 04:45:00,
2013-03-13 21:50:00,53.2,30.7,29.83,NW,315,0.0,3.0,42,0.00,CLR,,0.00,WeatherDisplay:10.37,2013-03-14 04:50:00,
2013-03-13 21:55:00,53.1,30.6,29.83,NW,316,3.0,5.0,42,0.00,CLR,,0.00,WeatherDisplay:10.37,2013-03-14 04:55:00,
2013-03-13 22:05:00,53.2,31.3,29.83,SE,143,0.0,2.0,43,0.00,CLR,,0.00,WeatherDisplay:10.37,2013-03-14 05:05:00,
2013-03-13 22:10:00,52.9,31.5,29.83,SE,135,0.0,0.0,44,0.00,CLR,,0.00,WeatherDisplay:10.37,2013-03-14 05:10:00,
2013-03-13 22:15:00,52.7,31.4,29.83,SE,135,0.0,0.0,44,0.00,CLR,,0.00,WeatherDisplay:10.37,2013-03-14 05:15:00,
2013-03-13 22:20:00,52.5,31.2,29.83,SE,135,0.0,0.0,44,0.00,CLR,,0.00,WeatherDisplay:10.37,2013-03-14 05:20:00,
2013-03-13 22:30:00,52.2,31.4,29.83,SE,135,0.0,0.0,45,0.00,CLR,,0.00,WeatherDisplay:10.37,2013-03-14 05:30:00,
2013-03-13 22:35:00,52.0,30.7,29.83,SE,135,0.0,0.0,44,0.00,CLR,,0.00,WeatherDisplay:10.37,2013-03-14 05:35:00,
2013-03-13 22:40:00,51.5,30.8,29.83,SE,135,0.0,0.0,45,0.00,CLR,,0.00,WeatherDisplay:10.37,2013-03-14 05:40:00,
2013-03-13 22:45:00,51.4,31.3,29.83,SE,135,0.0,0.0,46,0.00,CLR,,0.00,WeatherDisplay:10.37,2013-03-14 05:45:00,
2013-03-13 22:50:00,51.4,31.3,29.83,SE,135,0.0,0.0,46,0.00,CLR,,0.00,WeatherDisplay:10.37,2013-03-14 05:50:00,
2013-03-13 22:55:00,51.3,31.2,29.83,SE,135,0.0,0.0,46,0.00,CLR,,0.00,WeatherDisplay:10.37,2013-03-14 05:55:00,
2013-03-13 23:00:00,51.1,31.5,29.83,SE,135,0.0,0.0,47,0.00,CLR,,0.00,WeatherDisplay:10.37,2013-03-14 06:00:00,
2013-03-13 23:05:00,51.1,31.5,29.83,SSE,147,0.0,3.0,47,0.00,CLR,,0.00,WeatherDisplay:10.37,2013-03-14 06:05:00,
2013-03-13 23:10:00,51.1,32.1,29.83,South,170,0.0,2.0,48,0.00,CLR,,0.00,WeatherDisplay:10.37,2013-03-14 06:10:00,
2013-03-13 23:15:00,51.1,32.1,29.83,South,180,0.0,0.0,48,0.00,CLR,,0.00,WeatherDisplay:10.37,2013-03-14 06:15:00,
2013-03-13 23:20:00,51.1,32.1,29.83,South,180,0.0,0.0,48,0.00,CLR,,0.00,WeatherDisplay:10.37,2013-03-14 06:20:00,
2013-03-13 23:30:00,50.6,31.6,29.83,South,180,0.0,0.0,48,0.00,CLR,,0.00,WeatherDisplay:10.37,2013-03-14 06:30:00,
2013-03-13 23:40:00,50.7,31.7,29.83,South,180,0.0,0.0,48,0.00,CLR,,0.00,WeatherDisplay:10.37,2013-03-14 06:40:00,
2013-03-13 23:45:00,50.7,31.7,29.83,South,180,0.0,0.0,48,0.00,CLR,,0.00,WeatherDisplay:10.37,2013-03-14 06:45:00,
2013-03-13 23:50:00,50.7,31.7,29.83,South,180,0.0,0.0,48,0.00,CLR,,0.00,WeatherDisplay:10.37,2013-03-14 06:50:00,
2013-03-13 23:55:00,50.6,32.1,29.83,South,180,0.0,0.0,49,0.00,CLR,,0.00,WeatherDisplay:10.37,2013-03-14 06:55:00,